Weather History for LKMT - December, 2012

Change the Weather History Date:

Sunday, December 2, 2012

  Actual Average (EPKT) Record (EPKT)
Temperature  
Mean Temperature 30 °F -  
Max Temperature 35 °F 36 °F 51 °F (2003)
Min Temperature 24 °F 26 °F 12 °F (2010)
Degree Days  
Heating Degree Days 36    
Moisture  
Dew Point 28 °F    
Average Humidity 90    
Maximum Humidity 93    
Minimum Humidity 74    
Precipitation  
Precipitation 0.04 in 0.04 in - ()
Sea Level Pressure  
Sea Level Pressure 29.85 in    
Wind  
Wind Speed 2 mph ()    
Max Wind Speed 7 mph    
Max Gust Speed -    
Visibility 3.5 miles    
Events Snow    
Averages and records for this station are not official NWS values.
T = Trace of Precipitation, MM = Missing Value Source: Averaged Metar Reports

Daily Weather History Graph

Daily Weather History Graph

Search for Another Location

Airport or City:

Trip Planner

Search our weather history database for the weather conditions in past years. The results will help you decide how hot, cold, wet, or windy it might be!

Date:

Astronomy

Dec. 02, 2012 Rise Set
Actual Time 7:24 AM CET 3:49 PM CET
Civil Twilight 6:47 AM CET 4:26 PM CET
Nautical Twilight 6:06 AM CET 5:07 PM CET
Astronomical Twilight 5:28 AM CET 5:45 PM CET
Moon 7:27 PM CET (12/2) 9:56 AM CET (12/2)
Length of Visible Light 9h 39m
Length of Day
8h 24m
Waning Gibbous, 87% of the Moon is Illuminated
Dec 2
Waning Gibbous
Dec 6
Last Quarter
Dec 13
New
Dec 20
First Quarter
Dec 28
Full

Hourly Weather History & Observations

Time (CET) Temp. Windchill Dew Point Humidity Pressure Visibility Wind Dir Wind Speed Gust Speed Precip Events Conditions
12:00 AM 26.6 °F 22.6 °F 24.8 °F 93% 29.95 in 3.7 mi SSW 3.5 mph - N/A   Scattered Clouds
12:30 AM 26.6 °F 22.6 °F 24.8 °F 93% 29.95 in 3.7 mi SW 3.5 mph - N/A   Partly Cloudy
1:00 AM 26 °F - 24 °F 90% 30.00 in 4 mi 2.2 mph - -   Mist
1:00 AM 26.6 °F - 24.8 °F 93% 29.92 in 3.7 mi Variable 1.2 mph - N/A   Partly Cloudy
1:30 AM 26.6 °F - 24.8 °F 93% 29.92 in 3.7 mi Calm Calm - N/A   Unknown
2:00 AM 26.6 °F - 24.8 °F 93% 29.92 in 3.7 mi SSW 2.3 mph - N/A   Unknown
2:30 AM 26.6 °F 22.6 °F 24.8 °F 93% 29.92 in 3.7 mi SW 3.5 mph - N/A   Partly Cloudy
3:00 AM 28.4 °F 24.6 °F 24.8 °F 86% 29.92 in 3.7 mi South 3.5 mph - N/A   Partly Cloudy
3:30 AM 28.4 °F - 26.6 °F 93% 29.89 in 3.7 mi Calm Calm - N/A   Partly Cloudy
4:00 AM 28.4 °F - 26.6 °F 93% 29.89 in 3.7 mi Calm Calm - N/A   Mostly Cloudy
4:30 AM 28.4 °F - 26.6 °F 93% 29.89 in 3.7 mi Calm Calm - N/A   Overcast
5:00 AM 28.4 °F - 26.6 °F 93% 29.89 in 3.7 mi Calm Calm - N/A   Overcast
5:30 AM 28.4 °F - 26.6 °F 93% 29.89 in 4.3 mi Calm Calm - N/A   Overcast
6:00 AM 28.4 °F - 26.6 °F 93% 29.89 in 3.7 mi WSW 1.2 mph - N/A   Overcast
6:30 AM 28.4 °F - 26.6 °F 93% 29.89 in 3.7 mi Variable 1.2 mph - N/A   Overcast
7:00 AM 29 °F - 27 °F 89% 29.94 in 4 mi SW 2.2 mph - -   Mist
7:00 AM 30.2 °F - 26.6 °F 86% 29.89 in 3.7 mi Variable 2.3 mph - N/A   Scattered Clouds
7:30 AM 30.2 °F - 26.6 °F 86% 29.89 in 3.7 mi Calm Calm - N/A   Mostly Cloudy
8:00 AM 30.2 °F - 26.6 °F 86% 29.89 in 5.0 mi Calm Calm - N/A   Overcast
8:30 AM 30.2 °F - 26.6 °F 86% 29.89 in 5.0 mi Variable 1.2 mph - N/A   Mostly Cloudy
9:00 AM 30.2 °F - 28.4 °F 93% 29.89 in 5.0 mi ESE 2.3 mph - N/A   Mostly Cloudy
9:30 AM 30.2 °F - 28.4 °F 93% 29.86 in 5.0 mi Variable 1.2 mph - N/A   Mostly Cloudy
10:00 AM 32.0 °F - 28.4 °F 87% 29.86 in 5.0 mi Calm Calm - N/A   Mostly Cloudy
10:30 AM 32.0 °F - 28.4 °F 87% 29.86 in 3.7 mi Variable 1.2 mph - N/A   Mostly Cloudy
11:00 AM 33.8 °F - 28.4 °F 81% 29.86 in 3.7 mi Variable 2.3 mph - N/A   Mostly Cloudy
11:30 AM 33.8 °F 30.8 °F 30.2 °F 87% 29.86 in 3.7 mi WSW 3.5 mph - N/A   Overcast
12:00 PM 33.8 °F - 30.2 °F 87% 29.86 in 3.7 mi Variable 2.3 mph - N/A   Overcast
12:30 PM 33.8 °F - 30.2 °F 87% 29.83 in 3.7 mi Variable 1.2 mph - N/A   Overcast
1:00 PM 35 °F - 30 °F 74% 29.88 in 4 mi 2.2 mph - -   Mist
1:00 PM 35.6 °F - 30.2 °F 81% 29.83 in 3.7 mi Variable 2.3 mph - N/A   Overcast
1:30 PM 35.6 °F 32.8 °F 30.2 °F 81% 29.83 in 3.7 mi West 3.5 mph - N/A   Overcast
2:00 PM 35.6 °F 32.8 °F 30.2 °F 81% 29.83 in 4.3 mi WSW 3.5 mph - N/A   Mostly Cloudy
2:30 PM 35.6 °F 32.8 °F 30.2 °F 81% 29.83 in 4.3 mi WSW 3.5 mph - N/A   Scattered Clouds
3:00 PM 35.6 °F 30.7 °F 30.2 °F 81% 29.80 in 5.0 mi WSW 5.8 mph - N/A   Scattered Clouds
3:30 PM 33.8 °F 28.6 °F 30.2 °F 87% 29.80 in 5.0 mi SW 5.8 mph - N/A   Overcast
4:00 PM 33.8 °F 30.8 °F 30.2 °F 87% 29.80 in 4.3 mi SW 3.5 mph - N/A   Overcast
4:08 PM 33.8 °F 29.6 °F 30.2 °F 87% 29.80 in 4.3 mi SW 4.6 mph - N/A Snow Light Snow
4:30 PM 33.8 °F 27.7 °F 30.2 °F 87% 29.80 in 3.1 mi WSW 6.9 mph - N/A Snow Light Snow
5:00 PM 32.0 °F 26.4 °F 30.2 °F 93% 29.80 in 2.5 mi WSW 5.8 mph - N/A Snow Light Snow
5:30 PM 32.0 °F 25.6 °F 30.2 °F 93% 29.80 in 2.5 mi SW 6.9 mph - N/A Snow Light Snow
6:00 PM 32.0 °F 26.4 °F 30.2 °F 93% 29.80 in 2.2 mi SW 5.8 mph - N/A Snow Light Snow
6:30 PM 32.0 °F 25.6 °F 30.2 °F 93% 29.80 in 2.5 mi SW 6.9 mph - N/A Snow Light Snow
7:00 PM 32.0 °F 25.6 °F 30.2 °F 93% 29.80 in 2.5 mi SSW 6.9 mph - N/A Snow Light Snow
7:30 PM 32.0 °F 25.6 °F 30.2 °F 93% 29.80 in 2.8 mi SSW 6.9 mph - N/A Snow Light Snow
8:00 PM 32.0 °F 27.5 °F 30.2 °F 93% 29.80 in 3.1 mi SSW 4.6 mph - N/A Snow Light Snow
8:30 PM 32.0 °F 27.5 °F 30.2 °F 93% 29.80 in 3.1 mi SW 4.6 mph - N/A Snow Light Snow
9:00 PM 32.0 °F 26.4 °F 30.2 °F 93% 29.80 in 2.8 mi SW 5.8 mph - N/A Snow Light Snow
9:30 PM 32.0 °F 28.7 °F 30.2 °F 93% 29.80 in 2.5 mi WSW 3.5 mph - N/A Snow Light Snow
9:52 PM 32.0 °F 27.5 °F 30.2 °F 93% 29.80 in 1.4 mi WSW 4.6 mph - N/A Snow Light Snow
10:00 PM 32.0 °F 27.5 °F 30.2 °F 93% 29.80 in 1.2 mi WSW 4.6 mph - N/A Snow Light Snow
10:04 PM 32.0 °F 26.4 °F 30.2 °F 93% 29.80 in 1.1 mi WSW 5.8 mph - N/A Snow Light Snow
10:30 PM 32.0 °F 28.7 °F 30.2 °F 93% 29.80 in 1.3 mi SW 3.5 mph - N/A Snow Light Snow
11:00 PM 32.0 °F 27.5 °F 30.2 °F 93% 29.80 in 1.6 mi SW 4.6 mph - N/A Snow Light Snow
11:30 PM 32.0 °F 28.7 °F 30.2 °F 93% 29.80 in 1.6 mi West 3.5 mph - N/A Snow Light Snow